Preview of NWS' New Version of Forecast
This preview is not operational and should not be used for support decisions.

Regional Weather Roundup (RWR)

Issued by National Weather Service (NWS)

                            
000
ASUS43 KLSX 182357
RWRMO 

WEATHER SUMMARY FOR MISSOURI
NATIONAL WEATHER SERVICE SPRINGFIELD MO
700 PM CDT THU APR 18 2019

NOTE: "FAIR" INDICATES FEW OR NO CLOUDS BELOW 12,000 FEET WITH NO
       SIGNIFICANT WEATHER AND/OR OBSTRUCTIONS TO VISIBILITY.
       CURRENT SKY AND/OR WEATHER CONDITIONS ARE NOT AVAILABLE FOR
       CHILLICOTHE AND FARMINGTON.

MOZ001>031-035>038-043-044-053-054-190100-
...NORTHERN AND WESTERN MISSOURI...
  
CITY           SKY/WX    TMP DP  RH WIND       PRES   REMARKS
KANSAS CTY INT CLOUDY    58  39  49 N15       29.85R                  
6HR MIN TEMP:  54; 6HR MAX TEMP:  62;                                

LEE'S SUMMIT   CLOUDY    58  40  51 N17       29.84S                  
6HR MIN TEMP:  53; 6HR MAX TEMP:  59;                                

ST JOSEPH      MOSUNNY   58  39  49 N18       29.86R                  
6HR MIN TEMP:  55; 6HR MAX TEMP:  64;                                

CHILLICOTHE      N/A     57  38  48 N14G23    29.85R                  
6HR MIN TEMP:  56; 6HR MAX TEMP:  60;                                

     
$$
MOZ066>068-077>081-088>096-101>105-190100-
...SOUTHWEST MISSOURI...
  
CITY           SKY/WX    TMP DP  RH WIND       PRES   REMARKS
SPRINGFIELD    CLOUDY    54  42  64 N13       29.78R                  
6HR MIN TEMP:  49; 6HR MAX TEMP:  55; 6HR PCP: TRACE;                

JOPLIN         MOSUNNY   59  42  53 N15G24    29.81R                  
6HR MIN TEMP:  54; 6HR MAX TEMP:  62;                                

BRANSON        CLOUDY    50  46  87 N6        29.79R                  
               
$$
MOZ032>034-039>042-045>050-055>058-069>072-190100-
...CENTRAL MISSOURI...  
  
CITY           SKY/WX    TMP DP  RH WIND       PRES   REMARKS
COLUMBIA       NOT AVBL                                               
JEFFERSON CITY CLOUDY    56  41  57 N5        29.78F                  
6HR MIN TEMP:  51; 6HR MAX TEMP:  56;                                

ROLLA          CLOUDY    49  43  80 N3        29.78F                  
6HR MIN TEMP:  47; 6HR MAX TEMP:  50; 6HR PCP:  0.01;                

SEDALIA        CLOUDY    53  42  66 N17G25    29.82S                  
6HR MIN TEMP:  49; 6HR MAX TEMP:  56;                                

WARRENSBURG    CLOUDY    55  39  54 N12G18    29.83R                  
               
$$
MOZ051-052-059>065-190100-
...EAST CENTRAL MISSOURI...
  
CITY           SKY/WX    TMP DP  RH WIND       PRES   REMARKS
ST LOUIS INTL  CLOUDY    50  43  77 NW6       29.78S                  
6HR MIN TEMP:  48; 6HR MAX TEMP:  50; 6HR PCP:  0.22;                

                   
$$
MOZ072>076-082>087-097>100-106>115-190100-
...SOUTH CENTRAL AND SOUTHEAST MISSOURI...
  
CITY           SKY/WX    TMP DP  RH WIND       PRES   REMARKS
CAPE GIRARDEAU LGT RAIN  50  47  89 N20G30    29.69F FOG              
6HR MIN TEMP:  50; 6HR MAX TEMP:  65; 6HR PCP:  0.17;                

FARMINGTON     LGT RAIN  46  45  93 N8        29.76F                  
POPLAR BLUFF   LGT RAIN  51  50  96 N15       29.67F FOG              
6HR MIN TEMP:  51; 6HR MAX TEMP:  64; 6HR PCP:  0.54;                

WEST PLAINS    LGT RAIN  47  44  90 N10G21    29.76R                  
6HR MIN TEMP:  47; 6HR MAX TEMP:  53; 6HR PCP:  0.41;                

                                       
$$